EGFFEGHI

Guest
Details From EGFF - Cardiff
To EGHI - Southampton
Flight Number -
Tags generated
Created
Modified
Stats Distance 80 nm / 147 km
Max Altitude 4,800 ft / 1,463 m
Waypoints 3
Social Downloads 0
Likes 0
Share VATSIM

Download

Looking for another format? Having issues loading an existing format? Contact us
Advertisement - Login to hide

Notes

Basic altitude profile: - Ascent Rate: 2500ft/min - Ascent Speed: 250kts - Cruise Altitude: 35000ft - Cruise Speed: 420kts - Descent Rate: 1500ft/min - Descent Speed: 250kts Options: - Use NATs: yes - Use PACOTS: yes - Use low airways: yes - Use high airways: yes

Route

EGFF LAMAT EGHI

ID Type Via Altitude Latitude Longitude Leg Dist Tot Dist Heading (true) Name
O EGFF APT - 0 ft / 0 m 51.39656˚ -3.34320˚ - 0 nm - Cardiff
LAMAT FIX - 4,800 ft / 1,463 m 51.30194˚ -3.01750˚ 13 nm 13 nm 115° / 115° -
O EGHI APT - 0 ft / 0 m 50.95026˚ -1.35681˚ 66 nm 79 nm 108° / 109° Southampton

Altitude Profile

Advertisement - Login to hide

EGFF

Details ICAO EGFF (CWL)
Name Cardiff
Region United Kingdom
Timezone Europe/London (UTC+1.0)
Stats Elevation 220 ft / 67 m (AMSL)
Location 51.396565° -3.343202°
Runways 1
Magnetic Variation 1.500° W

METAR

EGFF 201320Z 27012KT 4800 BR BKN003 BKN009 15/15 Q1021

Decode

TAF

TAF EGFF 201058Z 2012/2112 26012KT 9999 SCT006 BKN012 TEMPO 2012/2019 3000 -DZ BR BKN003 PROB40 TEMPO 2012/2018 27015G25KT BECMG 2019/2022 32010KT SCT040

Decode

Departure Runways

ID Width Length Bearing (true) Bearing (mag) Surface Threshold Offset Overrun Length
12 131 ft / 40 m 7,831 ft / 2,387 m 116.82° 118.32° Asphalt 715 ft / 218 m 0 ft / 0 m
30 131 ft / 40 m 7,831 ft / 2,387 m 296.84° 298.34° Asphalt 594 ft / 181 m 0 ft / 0 m

EGHI

Details ICAO EGHI (SOU)
Name Southampton
Region United Kingdom
Timezone Europe/London (UTC+1.0)
Stats Elevation 44 ft / 13 m (AMSL)
Location 50.950255° -1.356806°
Runways 1
Magnetic Variation 0.737° W

METAR

EGHI 201320Z 20007KT 140V260 9999 BKN020 20/15 Q1020

Decode

TAF

Not found

Destination Runways

ID Width Length Bearing (true) Bearing (mag) Surface Threshold Offset Overrun Length
02 121 ft / 37 m 5,650 ft / 1,722 m 19.33° 20.07° Asphalt 240 ft / 73 m 0 ft / 0 m
20 121 ft / 37 m 5,650 ft / 1,722 m 199.34° 200.08° Asphalt 144 ft / 44 m 0 ft / 0 m

Approach Navaids

Runway Type Ident Frequency Range Bearing (true) Bearing (mag) Slope Elevation
20 Localiser ISN 110.75 MHz 18 nm / 33 km 199.34° 200.08° - 44 ft / 13 m (AMSL)
20 Glidescope ISN 110.75 MHz 10 nm / 19 km 199.34° 200.08° 3.10° 44 ft / 13 m (AMSL)
20 DME ISN 110.75 MHz 18 nm / 33 km - - - 54 ft / 16 m (AMSL)

Popular Alternatives